Skip Page Navigation
NASA JPL Caltech
NASA Logo - Jet Propulsion Laboratory + View the NASA Portal
+ Center for Near-Earth Object Studies
JPL Home Earth Solar System Stars & Galaxies Technology
JPL Solar System Dynamics
BODIES ORBITS EPHEMERIDES TOOLS PHYSICAL DATA DISCOVERY FAQ SITE MAP
JPL Small-Body Database Browser
Search: [ help ]  
226035 (2002 FR29)
Classification: Main-belt Asteroid          SPK-ID: 2226035
Ephemeris | Orbit Diagram | Orbital Elements | Mission Design | Physical Parameters | Discovery Circumstances ]

[ show orbit diagram ]
Orbital Elements at Epoch 2459000.5 (2020-May-31.0) TDB
Reference: JPL 18 (heliocentric ecliptic J2000)
 Element Value Uncertainty (1-sigma)   Units 
e .1711855381126505 4.0367e-08  
a 2.70056728173878 1.6148e-08 au
q 2.23826921840491 1.0938e-07 au
i 5.727901018120391 4.643e-06 deg
node 93.02438905082957 5.9709e-05 deg
peri 19.50860707289733 6.3613e-05 deg
M 80.01337451211215 2.0674e-05 deg
tp 2458640.219285308004
(2019-Jun-05.71928531)
9.166e-05 TDB
period 1620.992216363587
4.44
1.4539e-05
3.981e-08
d
yr
n .2220861990365365 1.9919e-09 deg/d
Q 3.162865345072651 1.8912e-08 au
  Orbit Determination Parameters
   # obs. used (total)      440  
   data-arc span      6622 days (18.13 yr)  
   first obs. used      2002-03-11  
   last obs. used      2020-04-27  
   planetary ephem.      DE431  
   SB-pert. ephem.      SB431-N16  
   condition code      0  
   norm. resid. RMS      .52791  
   source      ORB  
   producer      Otto Matic  
   solution date      2020-May-21 10:27:20  

Additional Information
 Earth MOID = 1.25582 au 
 Jupiter MOID = 1.95729 au 
 T_jup = 3.339 
[ show covariance matrix ]

Ephemeris | Orbit Diagram | Orbital Elements | Mission Design | Physical Parameters | Discovery Circumstances ]

Physical Parameter Table
Parameter Symbol Value Units Sigma Reference Notes
absolute magnitude H 16.3   n/a MPO338623  

226035 (2002 FR29)          Discovered 2002-Mar-20 by LINEAR at Socorro
Reference: 20091202/Numbers.arcLast Updated: 2009-12-04

Alternate Designations
 2002 FR29 = 2005 WU87 
Ephemeris | Orbit Diagram | Orbital Elements | Mission Design | Physical Parameters | Discovery Circumstances ]
ABOUT SSD CREDITS/AWARDS PRIVACY/COPYRIGHT GLOSSARY LINKS
FirstGov 2020-Aug-09 06:27 UT
(server date/time)  
NASA Home Page
Site Manager:   Ryan S. Park
Webmaster  Alan B. Chamberlin